DW8923 Weather Reports


time (UTC)temp
C
wind
direction
speed
KPH
gust
KPH
rain 1hr
cm
rain 24hr
cm
rain mn
cm
humidity
%
barometer
mb
20260905124537 23 270 0.0 0.0 0.00 0.08 0.00 92 1012.3
20260905123028 23 270 0.0 0.0 0.00 0.08 0.00 91 1012.1
20260905121529 23 270 0.0 0.0 0.00 0.08 0.00 90 1011.9
20260905120026 23 270 0.0 0.0 0.00 0.08 0.00 90 1011.7
20260905114525 23 270 0.0 0.0 0.00 0.08 0.00 90 1011.8
20260905113024 23 270 0.0 0.0 0.00 0.08 0.00 90 1011.6
20260905111522 23 270 0.0 0.0 0.00 0.08 0.00 89 1011.4
20260905110020 23 270 0.0 0.0 0.00 0.08 0.00 88 1011.4
20260905104520 24 270 0.0 0.0 0.00 0.08 0.00 88 1011.3
20260905103016 24 270 0.0 0.0 0.00 0.08 0.00 87 1011.3
20260905101523 25 270 0.0 0.0 0.00 0.08 0.00 88 1011.4
20260905100013 25 270 0.0 0.0 0.00 0.08 0.00 87 1011.5
20260905094511 25 270 0.0 0.0 0.00 0.08 0.00 88 1011.4
20260905093010 25 270 0.0 3.2 0.00 0.08 0.00 88 1011.3
20260905091514 25 172 0.0 4.8 0.00 0.08 0.00 87 1011.3
20260905090011 25 131 1.6 8.0 0.00 0.08 0.00 87 1011.3
20260905084506 25 169 1.6 4.8 0.00 0.08 0.00 87 1011.4
20260905083005 25 181 1.6 6.4 0.00 0.08 0.00 86 1011.4
20260905081505 25 123 3.2 9.7 0.00 0.08 0.00 86 1011.4
20260905080003 26 216 3.2 8.0 0.00 0.08 0.00 85 1011.5
20260905074501 26 173 0.0 9.7 0.00 0.08 0.00 84 1011.5
20260905073100 26 127 1.6 6.4 0.00 0.08 0.00 83 1011.7
20260905071558 26 140 1.6 4.8 0.00 0.08 0.00 82 1011.7
20260905070111 26 180 0.0 9.7 0.00 0.08 0.00 81 1011.8
20260905064555 26 171 1.6 8.0 0.00 0.08 0.00 81 1011.9
20260905063058 26 157 3.2 9.7 0.00 0.08 0.00 80 1012.0
20260905061552 26 155 1.6 11.3 0.00 0.08 0.00 79 1012.0
20260905060050 26 97 3.2 9.7 0.00 0.08 0.00 78 1012.1
20260905054554 27 164 1.6 6.4 0.00 0.08 0.00 77 1012.1
20260905053046 27 150 3.2 11.3 0.00 0.08 0.00 76 1012.0
20260905051544 27 167 3.2 9.7 0.00 0.08 0.00 76 1012.1
20260905050041 27 159 3.2 6.4 0.00 0.08 0.00 76 1012.2
20260905044541 27 124 3.2 11.3 0.00 0.08 0.08 75 1012.1
20260905043040 27 162 3.2 11.3 0.00 0.08 0.08 75 1012.1
20260905041540 27 119 4.8 11.3 0.00 0.08 0.08 74 1012.0
20260905040048 27 141 1.6 6.4 0.00 0.08 0.08 74 1011.9
20260905034538 27 123 3.2 9.7 0.00 0.08 0.08 74 1011.9
20260905033037 27 136 1.6 6.4 0.00 0.08 0.08 74 1011.9
20260905031537 28 119 1.6 6.4 0.00 0.08 0.08 74 1011.9
20260905030043 28 126 1.6 9.7 0.00 0.08 0.08 73 1011.7
20260905024535 28 100 3.2 11.3 0.00 0.08 0.08 72 1011.5
20260905023035 28 143 3.2 6.4 0.00 0.08 0.08 71 1011.5
20260905021535 28 134 3.2 8.0 0.00 0.08 0.08 71 1011.3
20260905020034 28 124 4.8 11.3 0.00 0.08 0.08 71 1011.1
20260905014533 29 121 3.2 11.3 0.00 0.08 0.08 70 1010.8
20260905013035 29 142 4.8 12.9 0.00 0.08 0.08 69 1010.8
20260905011531 29 123 3.2 12.9 0.00 0.08 0.08 67 1010.6
20260905010040 30 162 3.2 17.7 0.00 0.08 0.08 66 1010.5
20260905004529 30 157 3.2 11.3 0.00 0.08 0.08 65 1010.5
20260905003032 30 123 4.8 17.7 0.00 0.08 0.08 63 1010.3
20260905001529 31 121 9.7 16.1 0.00 0.08 0.08 61 1010.2
20260905000028 31 143 6.4 16.1 0.00 0.08 0.08 55 1009.9
20260904234527 31 166 9.7 22.5 0.00 0.08 0.08 55 1009.9
20260904233028 33 132 9.7 24.1 0.00 0.08 0.08 54 1009.9
20260904231526 34 132 3.2 12.9 0.00 0.08 0.08 45 1009.8
20260904230043 34 167 6.4 12.9 0.00 0.08 0.08 41 1009.8
20260904224528 34 142 4.8 14.5 0.00 0.08 0.08 38 1009.9
20260904223023 35 150 3.2 14.5 0.00 0.08 0.08 36 1009.9
20260904221524 35 103 9.7 17.7 0.00 0.08 0.08 39 1010.1
20260904220020 35 145 8.0 14.5 0.00 0.08 0.08 37 1010.1
20260904214521 35 28 6.4 24.1 0.00 0.08 0.08 38 1010.3
20260904213017 35 167 4.8 11.3 0.00 0.08 0.08 40 1010.5
20260904211513 35 217 3.2 17.7 0.00 0.08 0.08 43 1010.6
20260904210011 34 80 8.0 16.1 0.00 0.08 0.08 41 1010.7
20260904204510 33 127 8.0 16.1 0.00 0.08 0.08 40 1011.0
20260904203004 33 113 6.4 19.3 0.00 0.08 0.08 43 1011.1
20260904201503 32 156 8.0 14.5 0.00 0.08 0.08 47 1011.4
20260904200004 32 105 6.4 14.5 0.00 0.08 0.08 46 1011.5
20260904194503 33 146 8.0 22.5 0.00 0.08 0.08 48 1011.7
20260904193002 32 107 9.7 19.3 0.00 0.08 0.08 47 1011.9
20260904191600 32 175 8.0 20.9 0.00 0.08 0.08 49 1011.9
20260904190058 33 145 6.4 17.7 0.00 0.08 0.08 53 1012.1
20260904184557 33 142 4.8 14.5 0.00 0.08 0.08 54 1012.3
20260904183112 33 142 8.0 16.1 0.00 0.08 0.08 58 1012.4
20260904181555 32 135 9.7 20.9 0.00 0.08 0.08 57 1012.4
20260904180056 33 115 9.7 19.3 0.00 0.08 0.08 58 1012.6
20260904174554 33 125 6.4 17.7 0.00 0.08 0.08 58 1012.6
20260904173053 32 158 8.0 16.1 0.00 0.08 0.08 59 1012.7
20260904171551 33 136 4.8 16.1 0.00 0.08 0.08 58 1012.9
20260904170047 32 121 8.0 14.5 0.00 0.08 0.08 62 1013.0
20260904164546 32 151 6.4 14.5 0.00 0.08 0.08 60 1013.0
20260904163041 32 211 1.6 9.7 0.00 0.08 0.08 67 1012.9
20260904161541 31 233 4.8 11.3 0.00 0.08 0.08 67 1012.8
20260904160034 31 153 4.8 16.1 0.00 0.08 0.08 69 1012.9
20260904154531 30 229 6.4 12.9 0.00 0.08 0.08 71 1012.8
20260904153027 29 184 3.2 14.5 0.03 0.08 0.08 77 1012.8
20260904151526 27 144 4.8 11.3 0.03 0.08 0.08 83 1012.8
20260904150025 27 189 1.6 8.0 0.03 0.08 0.08 86 1012.7
20260904144515 26 161 6.4 12.9 0.03 0.08 0.08 89 1012.6
20260904143011 26 165 1.6 8.0 0.00 0.05 0.05 92 1012.5
20260904141511 26 149 3.2 9.7 0.00 0.05 0.05 92 1012.5
20260904140009 25 232 1.6 12.9 0.03 0.05 0.05 92 1012.5
20260904134517 25 159 1.6 6.4 0.05 0.05 0.05 92 1012.4
20260904133008 25 211 3.2 9.7 0.05 0.05 0.05 92 1012.3
20260904131509 25 225 1.6 6.4 0.05 0.05 0.05 91 1012.4
20260904130009 25 182 0.0 6.4 0.03 0.03 0.03 91 1012.5